Weather History for Dallas Love, TX

Change the Weather History Date:

Friday, January 4, 2013

  Actual Average Record
Temperature  
Mean Temperature 46 °F -  
Max Temperature 50 °F 55 °F 77 °F (1997)
Min Temperature 41 °F 37 °F 19 °F (1999)
Degree Days  
Heating Degree Days 20    
Moisture  
Dew Point 29 °F    
Average Humidity 54    
Maximum Humidity 65    
Minimum Humidity 44    
Precipitation  
Precipitation 0.00 in - - ()
Sea Level Pressure  
Sea Level Pressure 30.44 in    
Wind  
Wind Speed 2 mph (NW)    
Max Wind Speed 6 mph    
Max Gust Speed -    
Visibility 10 miles    
Events Rain    
Averages and records for this station are not official NWS values.
T = Trace of Precipitation, MM = Missing Value Source: NWS Daily Summary

Daily Weather History Graph

Daily Weather History Graph

Search for Another Location

Airport:

Trip Planner

Search our weather history database for the weather conditions in past years. The results will help you decide how hot, cold, wet, or windy it might be!

Date:

Astronomy

Jan. 04, 2013 Rise Set
Actual Time 7:30 AM CST 5:34 PM CST
Civil Twilight 7:03 AM CST 6:01 PM CST
Nautical Twilight 6:32 AM CST 6:32 PM CST
Astronomical Twilight 6:02 AM CST 7:02 PM CST
Moon No Moon Rise 11:38 AM CST (1/4)
Length of Visible Light 10h 58m
Length of Day
10h 04m
Waning Gibbous, 55% of the Moon is Illuminated
Jan 4
Waning Gibbous
Jan 4
Last Quarter
Jan 11
New
Jan 18
First Quarter
Jan 26
Full

Hourly Weather History & Observations

Time (CST) Temp. Windchill Dew Point Humidity Pressure Visibility Wind Dir Wind Speed Gust Speed Precip Events Conditions
12:53 AM 42.1 °F - 28.0 °F 58% 30.44 in 10.0 mi Calm Calm - N/A   Mostly Cloudy
1:53 AM 41.0 °F 39.0 °F 28.9 °F 62% 30.44 in 10.0 mi NNW 3.5 mph - N/A   Mostly Cloudy
2:53 AM 43.0 °F 41.3 °F 30.0 °F 60% 30.46 in 10.0 mi WSW 3.5 mph - N/A   Mostly Cloudy
3:53 AM 41.0 °F 38.0 °F 28.9 °F 62% 30.48 in 10.0 mi WNW 4.6 mph - N/A   Overcast
4:53 AM 41.0 °F 39.0 °F 28.9 °F 62% 30.48 in 10.0 mi WNW 3.5 mph - N/A   Overcast
5:53 AM 41.0 °F - 30.2 °F 65% 30.49 in 10.0 mi Calm Calm - N/A   Overcast
6:53 AM 42.1 °F - 28.9 °F 60% 30.50 in 10.0 mi Calm Calm - N/A   Overcast
7:53 AM 42.1 °F - 28.9 °F 60% 30.50 in 10.0 mi Calm Calm - N/A   Overcast
8:53 AM 43.0 °F - 28.0 °F 56% 30.52 in 10.0 mi Calm Calm - N/A   Overcast
9:53 AM 43.0 °F 40.3 °F 28.9 °F 58% 30.53 in 10.0 mi NNW 4.6 mph - N/A   Overcast
10:53 AM 44.1 °F 41.5 °F 28.9 °F 55% 30.53 in 10.0 mi WNW 4.6 mph - N/A   Overcast
11:53 AM 45.0 °F - 30.0 °F 56% 30.50 in 10.0 mi Calm Calm - N/A   Overcast
12:53 PM 46.9 °F - 30.0 °F 52% 30.46 in 10.0 mi Calm Calm - N/A   Overcast
1:53 PM 48.0 °F - 30.0 °F 50% 30.43 in 10.0 mi Calm Calm - N/A   Mostly Cloudy
2:53 PM 50.0 °F - 28.9 °F 44% 30.40 in 10.0 mi Calm Calm - N/A   Mostly Cloudy
3:53 PM 48.9 °F - 28.9 °F 46% 30.40 in 10.0 mi Calm Calm - N/A   Mostly Cloudy
4:53 PM 48.9 °F - 28.9 °F 46% 30.39 in 10.0 mi NNE 4.6 mph - N/A   Mostly Cloudy
5:53 PM 48.0 °F - 28.0 °F 46% 30.39 in 10.0 mi East 4.6 mph - N/A   Mostly Cloudy
6:53 PM 48.0 °F - 28.9 °F 48% 30.39 in 10.0 mi East 5.8 mph - N/A   Overcast
7:53 PM 48.0 °F - 28.9 °F 48% 30.40 in 10.0 mi East 4.6 mph - N/A   Overcast
8:53 PM 48.0 °F - 28.9 °F 48% 30.39 in 10.0 mi ESE 5.8 mph - N/A   Overcast
9:53 PM 46.9 °F - 28.9 °F 50% 30.39 in 10.0 mi SSE 4.6 mph - N/A   Overcast
10:53 PM 46.9 °F - 28.9 °F 50% 30.38 in 10.0 mi South 5.8 mph - N/A   Overcast
11:53 PM 46.9 °F - 33.1 °F 59% 30.38 in 10.0 mi SW 5.8 mph - 0.00 in Rain Light Rain